[[{"header":{"parameterUnit":"m.s-1","parameterCategory":1,"la1":30.2991,"la2":30.254,"lo1":-89.0895,"lo2":-89.0444,"dy":0.0017,"dx":0.0017,"nx":28,"ny":28,"refTime":"2024-05-02T09:00:00:Z","depth":0,"parameterNumber":2,"parameterNumberName":"U-component_of_WINDS"},"data":[0,0,0,0,0,0,0,0,0,0,0,0,0,0,0,0,0,0,0,0,0,0,0,0,0,0,0,0,0,0,0,0,0,0,0,0,0,0,0,0,0,0,0,0,0,0,0,0,0,0,0,0,0,0,0,0,0,0,-2.6767,-2.6767,0,-2.6778,-2.6778,-2.6778,-2.6735,-2.6734,-2.6733,-2.6732,-2.6742,-2.6744,-2.6745,0,0,0,0,0,0,0,0,0,0,0,0,0,-2.6709,-2.6711,-2.6767,-2.6767,-2.6767,-2.6778,-2.6778,-2.6778,-2.6736,-2.6734,-2.6733,-2.6731,-2.6742,-2.6744,-2.6745,0,0,0,0,0,0,0,0,0,0,0,0,0,-2.6729,-2.6711,-2.6767,-2.6747,-2.6746,-2.6778,-2.6778,-2.6778,-2.6736,-2.6734,-2.6732,-2.673,-2.6741,-2.6743,-2.6746,-2.6797,0,0,-2.6752,-2.6753,0,0,0,0,0,0,0,0,-2.6728,-2.6731,-2.675,-2.6749,-2.6747,-2.6753,-2.6761,-2.6784,-2.6736,-2.674,-2.6732,-2.673,-2.6748,-2.6749,-2.6755,-2.6797,-2.6798,-2.6752,-2.6754,-2.6755,-2.6755,0,0,0,0,0,0,0,-2.6726,-2.673,-2.6771,-2.675,-2.6748,-2.6738,-2.6739,-2.6765,-2.6754,-2.6739,-2.6736,-2.6738,-2.6746,-2.6753,-2.6755,-2.6798,-2.6752,-2.6754,-2.6756,-2.6757,-2.6882,-2.6884,0,0,0,0,0,0,-2.6728,-2.6729,-2.6771,-2.6771,-2.6732,-2.674,-2.6741,-2.6753,-2.6754,-2.6752,-2.674,-2.6736,-2.675,-2.6753,-2.6755,-2.6815,-2.6755,-2.6757,-2.6758,-2.688,-2.6883,-2.6885,0,0,0,0,0,0,-2.6726,-2.6732,-2.677,-2.6749,-2.6754,-2.6743,-2.6757,-2.6754,-2.6761,-2.6754,-2.6752,-2.6749,-2.6749,-2.6752,-2.6787,-2.6815,-2.6758,-2.676,-2.6878,-2.6881,-2.6884,-2.6935,0,0,0,0,0,0,-2.6725,-2.6732,-2.6751,-2.675,-2.6755,-2.6802,-2.6759,-2.6756,-2.6765,-2.676,-2.6762,-2.676,-2.6748,-2.6784,-2.6789,-2.6817,-2.6761,-2.6875,-2.6879,-2.6883,-2.693,-2.6939,-2.6946,0,0,0,0,0,-2.6723,-2.6764,-2.6752,-2.6757,-2.6779,-2.6803,-2.6806,-2.6791,-2.6768,-2.6787,-2.6782,-2.676,-2.6811,-2.6788,-2.6793,-2.6822,-2.6873,-2.6878,-2.6883,-2.6927,-2.6937,-2.6946,0,0,0,0,0,0,-2.6768,-2.6764,-2.675,-2.6792,-2.6799,-2.6796,-2.682,-2.6802,-2.6815,-2.681,-2.6791,-2.6791,-2.6829,-2.6829,-2.6803,-2.6871,-2.6838,-2.6844,-2.687,-2.688,-2.6888,-2.6886,-2.6763,0,0,0,0,0,-2.6783,-2.6804,-2.6799,-2.6837,-2.684,-2.683,-2.684,-2.6828,-2.6833,-2.6836,-2.6833,-2.684,-2.6857,-2.6868,-2.6884,-2.6931,-2.693,-2.6953,-2.6961,-2.6968,-2.6973,-2.6997,-2.7007,-2.69,-2.69,-2.69,0,0,-2.6814,-2.6814,-2.6828,-2.6846,-2.6849,-2.687,-2.6832,-2.6856,-2.6872,-2.6839,-2.6871,-2.687,-2.6876,-2.6917,-2.6934,-2.6918,-2.7003,-2.6974,-2.6979,-2.698,-2.7003,-2.7013,-2.7022,-2.6903,-2.6903,-2.6902,0,0,-2.6881,-2.6884,-2.6915,-2.692,-2.6925,-2.6918,-2.6926,-2.6926,-2.6924,-2.6956,-2.6932,-2.6951,-2.6981,-2.6986,-2.6992,-2.7062,-2.7043,-2.7068,-2.711,-2.7134,-2.7142,-2.7149,-2.7174,-2.7183,-2.7073,-2.7074,-2.7074,0,-2.6918,-2.695,-2.6934,-2.696,-2.6968,-2.694,-2.6972,-2.6977,-2.6987,-2.6994,-2.6975,-2.7013,-2.7014,-2.7056,-2.7073,-2.7079,-2.7087,-2.7067,-2.7142,-2.7149,-2.7156,-2.7179,-2.7189,-2.7076,-2.7076,-2.7076,-2.7076,0,-2.6995,-2.7018,-2.7043,-2.7054,-2.7065,-2.7094,-2.7082,-2.7096,-2.7083,-2.7078,-2.7111,-2.7113,-2.7128,-2.7137,-2.7125,-2.7177,-2.7167,-2.7146,-2.7111,-2.717,-2.7191,-2.72,-2.7081,-2.708,-2.7079,-2.7078,0,0,-2.709,-2.7092,-2.7102,-2.7106,-2.7111,-2.7128,-2.7156,-2.7171,-2.7183,-2.7191,-2.7214,-2.7241,-2.7221,-2.7229,-2.7217,-2.7239,-2.7293,-2.7215,-2.7214,-2.7229,-2.7351,-2.7366,-2.7376,-2.7281,-2.7283,-2.7284,-2.735,0,-2.7155,-2.7203,-2.7189,-2.7237,-2.7257,-2.7231,-2.7256,-2.7261,-2.7257,-2.7274,-2.727,-2.7289,-2.7262,-2.7266,-2.7286,-2.7283,-2.7318,-2.7278,-2.7301,-2.7302,-2.73,-2.7388,-2.7404,-2.7466,-2.7358,-2.736,-2.7361,0,-2.7238,-2.7249,-2.7299,-2.7301,-2.7309,-2.7331,-2.7344,-2.736,-2.7366,-2.7362,-2.7371,-2.7355,-2.7382,-2.7349,-2.7386,-2.736,-2.7369,-2.7369,-2.7371,-2.7371,-2.7334,-2.739,-2.7485,-2.7494,-2.7374,-2.7373,-2.7372,0,-2.7301,-2.7329,-2.7363,-2.7368,-2.737,-2.7386,-2.7388,-2.7392,-2.7403,-2.7414,-2.742,-2.7435,-2.7443,-2.7455,-2.7443,-2.7421,-2.7483,-2.7449,-2.748,-2.748,-2.7493,-2.7492,-2.759,-2.75,-2.75,-2.75,-2.75,0,-2.7375,-2.7406,-2.7391,-2.7412,-2.7446,-2.7431,-2.7465,-2.7464,-2.7468,-2.7488,-2.7467,-2.7486,-2.747,-2.7487,-2.7479,-2.7511,-2.7515,-2.7512,-2.7509,-2.7513,-2.7514,-2.7518,-2.7513,-2.7503,-2.7502,-2.7502,-2.7501,0,-2.7451,-2.7442,-2.7477,-2.7477,-2.7477,-2.7503,-2.7503,-2.7521,-2.7517,-2.7542,-2.7547,-2.7539,-2.7559,-2.7549,-2.757,-2.7564,-2.7605,-2.7597,-2.7603,-2.7601,-2.7632,-2.7629,-2.7736,-2.7749,-2.7651,-2.7652,-2.7653,0,-2.7498,-2.7521,-2.7524,-2.7536,-2.7539,-2.7558,-2.7569,-2.7555,-2.7567,-2.7575,-2.7593,-2.7611,-2.7625,-2.7658,-2.7654,-2.767,-2.7661,-2.7697,-2.7663,-2.7667,-2.7661,-2.7659,-2.7661,-2.7704,-2.7705,-2.7706,-2.7707,0,-2.7583,-2.7577,-2.7593,-2.7608,-2.7621,-2.7631,-2.764,-2.7651,-2.7638,-2.7652,-2.7672,-2.7682,-2.7704,-2.7722,-2.7735,-2.7737,-2.772,-2.7718,-2.7726,-2.773,-2.7732,-2.7731,-2.7621,-2.7715,-2.7714,-2.7714,-2.7713,-2.7713,-2.7645,-2.7665,-2.767,-2.7688,-2.7693,-2.7702,-2.772,-2.7718,-2.7734,-2.775,-2.7741,-2.7765,-2.777,-2.7787,-2.7791,-2.7809,-2.7795,-2.7806,-2.7809,-2.7812,-2.7816,-2.773,-2.7812,-2.7812,-2.7811,-2.7811,-2.7811,0,-2.7728,-2.773,-2.7747,-2.7761,-2.7775,-2.7758,-2.7767,-2.778,-2.7801,-2.7808,-2.7822,-2.7845,-2.7863,-2.7861,-2.7877,-2.7892,-2.7884,-2.7896,-2.7895,-2.7895,-2.7828,-2.782,-2.7902,-2.7902,-2.7902,-2.7902,-2.7902,-2.7902,-2.7773,-2.7805,-2.7801,-2.7836,-2.7837,-2.786,-2.7867,-2.7875,-2.788,-2.7907,-2.7922,-2.792,-2.7924,-2.794,-2.7955,-2.7954,-2.7961,-2.7976,-2.7972,-2.7909,-2.79,-2.7891,-2.7883,-2.7978,-2.7978,-2.8037,-2.8038,-2.8038]},{"header":{"parameterUnit":"m.s-1","parameterCategory":1,"la1":30.2991,"la2":30.254,"lo1":-89.0895,"lo2":-89.0444,"dy":0.0017,"dx":0.0017,"nx":28,"ny":28,"refTime":"2024-05-02T09:00:00:Z","depth":0,"parameterNumber":3,"parameterNumberName":"V-component_of_WINDS"},"data":[0,0,0,0,0,0,0,0,0,0,0,0,0,0,0,0,0,0,0,0,0,0,0,0,0,0,0,0,0,0,0,0,0,0,0,0,0,0,0,0,0,0,0,0,0,0,0,0,0,0,0,0,0,0,0,0,0,0,3.0715,3.0716,0,3.0802,3.0803,3.0803,3.0804,3.0803,3.0802,3.0801,3.0885,3.0888,3.0892,0,0,0,0,0,0,0,0,0,0,0,0,0,3.0548,3.0551,3.0715,3.0716,3.0717,3.0801,3.0803,3.0804,3.0804,3.0803,3.0802,3.08,3.0884,3.0888,3.0892,0,0,0,0,0,0,0,0,0,0,0,0,0,3.0626,3.0552,3.0715,3.0728,3.073,3.0801,3.0803,3.0804,3.0805,3.0803,3.0801,3.08,3.0883,3.0888,3.0892,3.0955,0,0,3.0907,3.091,0,0,0,0,0,0,0,0,3.0621,3.0632,3.0725,3.0727,3.073,3.0791,3.0774,3.0855,3.0805,3.0776,3.0801,3.0799,3.0855,3.0862,3.0882,3.0959,3.0963,3.0908,3.0911,3.0913,3.0914,0,0,0,0,0,0,0,3.0616,3.0628,3.0749,3.0726,3.0729,3.0728,3.0738,3.079,3.0823,3.0779,3.0779,3.0789,3.0856,3.0877,3.0883,3.0964,3.0908,3.0912,3.0915,3.0917,3.1098,3.11,0,0,0,0,0,0,3.0609,3.0624,3.0747,3.0752,3.0671,3.0733,3.0743,3.0773,3.0823,3.0829,3.0791,3.0789,3.0869,3.0878,3.0886,3.0964,3.0913,3.0917,3.092,3.1096,3.1098,3.1101,0,0,0,0,0,0,3.0605,3.062,3.0743,3.0688,3.0704,3.0737,3.077,3.0775,3.0796,3.0832,3.0838,3.0806,3.0868,3.088,3.0939,3.0967,3.092,3.0924,3.1094,3.1097,3.11,3.1119,0,0,0,0,0,0,3.06,3.0618,3.0643,3.0689,3.0707,3.0795,3.0772,3.0778,3.0805,3.0804,3.0848,3.0854,3.0868,3.0931,3.0943,3.0973,3.0928,3.1092,3.1095,3.1099,3.1116,3.1122,3.1127,0,0,0,0,0,3.0594,3.0644,3.0645,3.0659,3.0739,3.0797,3.0807,3.0823,3.0807,3.0832,3.0855,3.0852,3.0962,3.0937,3.0951,3.0982,3.109,3.1094,3.1098,3.1113,3.1121,3.1127,0,0,0,0,0,0,3.06,3.065,3.0651,3.0718,3.0753,3.0797,3.0829,3.083,3.087,3.0867,3.0884,3.0894,3.0953,3.0973,3.0945,3.1046,3.1024,3.1031,3.103,3.1038,3.1043,3.1037,3.0932,0,0,0,0,0,3.0609,3.0653,3.0694,3.0749,3.0767,3.0795,3.082,3.083,3.0867,3.0881,3.0908,3.0943,3.0985,3.1012,3.1053,3.1119,3.1128,3.1147,3.1152,3.1157,3.1163,3.1199,3.1208,3.1114,3.1114,3.1114,0,0,3.0628,3.0661,3.0687,3.0751,3.0779,3.0823,3.0807,3.0854,3.0887,3.0888,3.0946,3.0967,3.1007,3.1069,3.1098,3.1088,3.1191,3.1162,3.1166,3.1169,3.1204,3.1213,3.1221,3.1117,3.1117,3.1116,0,0,3.0685,3.0715,3.0764,3.0793,3.0837,3.0856,3.0867,3.0911,3.0926,3.0984,3.0986,3.1024,3.1097,3.1125,3.1149,3.1218,3.1217,3.123,3.126,3.1295,3.1303,3.1309,3.1334,3.1343,3.1236,3.1236,3.1236,0,3.0703,3.0771,3.0789,3.0837,3.0864,3.0869,3.0918,3.0945,3.0999,3.1018,3.1006,3.1097,3.1124,3.1194,3.1211,3.123,3.1244,3.1226,3.1301,3.1307,3.1314,3.1338,3.1347,3.1238,3.1238,3.1237,3.1237,0,3.0791,3.0838,3.0872,3.0926,3.0958,3.1006,3.103,3.1059,3.1066,3.1086,3.1145,3.1178,3.1225,3.1243,3.1249,3.1313,3.1306,3.1297,3.1275,3.1324,3.1346,3.1356,3.124,3.1239,3.1239,3.1238,0,0,3.0854,3.0918,3.093,3.0955,3.1004,3.104,3.1088,3.1137,3.1162,3.1199,3.1239,3.1301,3.1293,3.132,3.133,3.1361,3.1414,3.1349,3.135,3.136,3.1487,3.1493,3.1503,3.1413,3.1415,3.1416,3.1483,0,3.0917,3.1005,3.1022,3.1097,3.1141,3.1146,3.1188,3.1222,3.1241,3.128,3.13,3.1344,3.1331,3.1347,3.1378,3.1401,3.1439,3.1396,3.145,3.1452,3.1441,3.1515,3.1522,3.1584,3.1492,3.1494,3.1495,0,3.1002,3.1044,3.1124,3.1168,3.1186,3.1224,3.127,3.1307,3.1345,3.1357,3.1388,3.1394,3.1444,3.142,3.1488,3.1458,3.1481,3.1495,3.1498,3.1504,3.1477,3.1523,3.1604,3.1613,3.1509,3.1508,3.1507,0,3.1041,3.1116,3.1174,3.1195,3.1247,3.1274,3.1297,3.1334,3.1361,3.1401,3.1419,3.1463,3.1487,3.1521,3.1538,3.1519,3.1605,3.1582,3.1616,3.1615,3.1634,3.1632,3.172,3.1648,3.1648,3.1648,3.1648,0,3.111,3.1159,3.1193,3.1228,3.1283,3.1302,3.1355,3.1377,3.141,3.145,3.1456,3.1492,3.1513,3.1553,3.1567,3.1621,3.1631,3.1642,3.1645,3.1642,3.164,3.1657,3.1653,3.165,3.165,3.1649,3.1649,0,3.1163,3.1187,3.1251,3.1296,3.1308,3.1346,3.1384,3.1418,3.1438,3.1487,3.15,3.153,3.1577,3.1598,3.1655,3.1664,3.1726,3.1726,3.1714,3.1715,3.1747,3.1744,3.1848,3.1863,3.1782,3.1782,3.1783,0,3.1205,3.1243,3.1293,3.132,3.1344,3.1388,3.1417,3.1437,3.1466,3.1513,3.1542,3.1589,3.1628,3.1702,3.1728,3.1772,3.1773,3.1806,3.1779,3.1775,3.1774,3.1772,3.1775,3.1811,3.1812,3.1813,3.1813,0,3.1278,3.1289,3.1331,3.1378,3.1413,3.145,3.1486,3.1508,3.1534,3.1566,3.1615,3.1645,3.1704,3.1751,3.1796,3.1818,3.182,3.1822,3.1832,3.1829,3.182,3.1826,3.1727,3.1819,3.1819,3.1818,3.1818,3.1818,3.1328,3.1362,3.1402,3.1449,3.1479,3.1513,3.1548,3.1572,3.1614,3.1664,3.1673,3.1725,3.1762,3.1823,3.1847,3.1887,3.1879,3.1893,3.1897,3.19,3.1903,3.1814,3.1895,3.1895,3.1895,3.1895,3.1895,0,3.1402,3.1428,3.1471,3.1523,3.156,3.1559,3.1599,3.163,3.1676,3.1711,3.1749,3.1805,3.185,3.188,3.1926,3.1952,3.1954,3.1964,3.1962,3.1967,3.1907,3.1894,3.1961,3.1961,3.1961,3.1961,3.1961,3.1961,3.1445,3.1503,3.1518,3.1591,3.1616,3.1668,3.1691,3.1722,3.1751,3.1813,3.1852,3.1871,3.1904,3.1952,3.1994,3.2001,3.2018,3.2028,3.2035,3.1978,3.1971,3.1965,3.1952,3.2031,3.2031,3.2092,3.2092,3.2092]}]]